Content
SEND FEEDBACK

Daily
Averages
Monthly
Summary
United States of America

BOSTON, MASSACHUSETTS


Home > North America > United States > Massachusetts
Elevation: 1 meter     Latitude: 42 22N     Longitude: 071 02W

WEATHER
 
SELECT A DAY
Number of Records: 202,493;   Date Range: 1/1/95 - 7/23/14
 
SHARE

PRINT THIS DATA

[ ← Previous Day ]
WEATHER ALMANAC - 4 MAY, 2013
[ Next Day → ]
[ °F ]   °C
Weather ElementAverageHighLow
Temperature9.1 °C10.6 °C (9:54 am)6.7 °C (9:54 pm)
Dewpoint4.2 °C6.1 °C (8:54 am)2.8 °C (1:54 am)
Humidity71.7 %80 % (5:54 am)61 % (2:54 pm)
Barometer1028.1 hPa1028.8 hPa (8:54 am)1027.4 hPa (4:54 pm)
Wind Speed15.3 km/h24.1 km/h (9:54 am)
Weather ElementAverage
Visibility16.1 km
Wind DirectionESE (101.6 °)

Weather ElementTotal
Precipitation---
Heating Degree Days9.7 (Base 18.3)
Averaged from 25 records on 4 May, 2013
WEATHER CONDITIONS BREAKOUT
WIND DIRECTION BREAKOUT
WEATHER BY HOUR - 4 MAY, 2013
[ °F ]   °C
Local TimeTemperatureDewpointHumidityBarometerVisibilityWind DirectionWind SpeedGust SpeedPrecipitationEventsConditions
1:54 AM8.9 °C2.8 °C66 %1028.1 hPa16.1 kmNorth (360°)5.6 km/hClear
2:54 AM8.3 °C3.3 °C71 %1027.8 hPa16.1 kmNorth (360°)5.6 km/hClear
3:54 AM7.8 °C3.3 °C73 %1027.8 hPa16.1 kmNorth (10°)5.6 km/hClear
4:54 AM8.3 °C3.9 °C74 %1027.8 hPa16.1 kmCalmPartly Cloudy
5:54 AM8.3 °C5 °C80 %1027.8 hPa16.1 kmEast (80°)11.1 km/hClear
6:54 AM9.4 °C5.6 °C77 %1028.1 hPa16.1 kmENE (70°)16.7 km/hClear
7:54 AM10 °C5.6 °C74 %1028.1 hPa16.1 kmENE (60°)18.5 km/hClear
8:42 AM10 °C6 °C76 %1028.4 hPa16.1 kmENE (70°)20.4 km/hMostly Cloudy
8:54 AM10 °C6.1 °C77 %1028.8 hPa16.1 kmEast (80°)18.5 km/hMostly Cloudy
9:07 AM10 °C6 °C76 %1028.8 hPa16.1 kmENE (70°)20.4 km/hScattered Clouds
9:54 AM10.6 °C5 °C68 %1028.8 hPa16.1 kmENE (70°)24.1 km/hClear
10:54 AM10.6 °C5 °C68 %1028.8 hPa16.1 kmEast (80°)20.4 km/hClear
11:54 AM10.6 °C4.4 °C66 %1028.8 hPa16.1 kmEast (80°)20.4 km/hClear
12:54 PM10.6 °C4.4 °C66 %1028.8 hPa16.1 kmEast (90°)20.4 km/hPartly Cloudy
1:54 PM10.6 °C3.9 °C63 %1028.8 hPa16.1 kmEast (100°)20.4 km/hPartly Cloudy
2:54 PM10.6 °C3.3 °C61 %1028.1 hPa16.1 kmEast (100°)20.4 km/hPartly Cloudy
3:54 PM10 °C3.9 °C66 %1027.8 hPa16.1 kmEast (90°)18.5 km/hPartly Cloudy
4:54 PM10 °C3.9 °C66 %1027.4 hPa16.1 kmESE (110°)18.5 km/hPartly Cloudy
5:54 PM8.9 °C3.3 °C68 %1027.4 hPa16.1 kmESE (120°)18.5 km/hPartly Cloudy
6:54 PM8.3 °C3.3 °C71 %1027.4 hPa16.1 kmEast (100°)16.7 km/hPartly Cloudy
7:54 PM7.2 °C3.3 °C76 %1027.4 hPa16.1 kmEast (100°)16.7 km/hPartly Cloudy
8:54 PM7.2 °C3.3 °C76 %1027.8 hPa16.1 kmEast (90°)13 km/hPartly Cloudy
9:54 PM6.7 °C3.3 °C79 %1027.8 hPa16.1 kmEast (100°)11.1 km/hPartly Cloudy
10:54 PM6.7 °C3.3 °C79 %1027.8 hPa16.1 kmEast (80°)9.3 km/hPartly Cloudy
11:54 PM7.2 °C3.3 °C76 %1027.4 hPa16.1 kmENE (70°)9.3 km/hPartly Cloudy
Hourly data recorded from KBOS, located 0 kilometers away from Boston, Massachusetts







STORIES FROM OUR PARTNERS